This is the latest recevied weather packets stored in our database for station/object N5SOR-1. If no packets are shown the sender has not sent any weather packets the latest 10 day(s).
| Time | Temp. | Humidity | Pressure | Rain* | Wind** | Luminosity | Snow |
|---|---|---|---|---|---|---|---|
| 1777968934 | 21.67° C | 40% | 1006.5 hPa | 0 mm | - | 0 W/m² | - |
| 1777968273 | 22.22° C | 41% | 1006.5 hPa | 0 mm | - | 0 W/m² | - |
| 1777967613 | 22.22° C | 41% | 1006.5 hPa | 0 mm | - | 0 W/m² | - |
| 1777966952 | 22.22° C | 42% | 1006.8 hPa | 0 mm | - | 0 W/m² | - |
| 1777966291 | 22.78° C | 42% | 1006.7 hPa | 0 mm | - | 0 W/m² | - |
| 1777965631 | 22.78° C | 44% | 1006.8 hPa | 0 mm | - | 0 W/m² | - |
| 1777964971 | 22.78° C | 43% | 1006.8 hPa | 0 mm | - | 0 W/m² | - |
| 1777964310 | 22.78° C | 44% | 1006.7 hPa | 0 mm | - | 0 W/m² | - |
| 1777963649 | 22.78° C | 46% | 1007.1 hPa | 0 mm | - | 0 W/m² | - |
| 1777962989 | 22.78° C | 47% | 1007.1 hPa | 0 mm | - | 0 W/m² | - |
| 1777962328 | 22.22° C | 52% | 1007.3 hPa | 0 mm | - | 0 W/m² | - |
| 1777961667 | 22.22° C | 51% | 1007.4 hPa | 0 mm | - | 0 W/m² | - |
| 1777961006 | 22.78° C | 50% | 1007.6 hPa | 0 mm | - | 0 W/m² | - |
| 1777960346 | 21.67° C | 55% | 1007.6 hPa | 0 mm | - | 0 W/m² | - |
| 1777959685 | 21.67° C | 56% | 1007.7 hPa | 0 mm | - | 0 W/m² | - |
| 1777959025 | 22.22° C | 56% | 1008 hPa | 0 mm | - | 0 W/m² | - |
| 1777958364 | 22.22° C | 56% | 1008 hPa | 0 mm | - | 0 W/m² | - |
| 1777957703 | 22.22° C | 54% | 1008.2 hPa | 0 mm | - | 0 W/m² | - |
| 1777957043 | 22.22° C | 54% | 1008.2 hPa | 0 mm | - | 0 W/m² | - |
| 1777956382 | 22.22° C | 52% | 1008.1 hPa | 0 mm | - | 0 W/m² | - |
| 1777955721 | 22.22° C | 51% | 1008 hPa | 0 mm | - | 0 W/m² | - |
| 1777955061 | 22.22° C | 52% | 1008.1 hPa | 0 mm | - | 0 W/m² | - |
| 1777954400 | 22.22° C | 51% | 1008.1 hPa | 0 mm | - | 0 W/m² | - |
| 1777953740 | 22.78° C | 51% | 1008.2 hPa | 0 mm | - | 0 W/m² | - |
| 1777953079 | 22.78° C | 50% | 1008.2 hPa | 0 mm | - | 0 W/m² | - |
* Rain latest hour (hover to see other rain measurements)
** Current wind speed in m/s (hover to see current wind gust speed)